Погода в Лиственичном

Россия / Ханты-Мансийский автономный округ - Югра     59°38′45″N   65°42′39″E
темп.,
°C
ветер,
м/с
пор.,
м/с
влажн.,
%
обл.,
%
осадки,
мм/ч
давл.,
гПа
погр.,
м
16 мая, вс
вс1623:00+15юз258995 3.9 101488
02:00+14з2490100 0.0 101491
05:00+15з31284100 0.1 1014374
08:00+18с247348 0.2 1015451
11:00+23зюз1351100 0.2 1015922
14:00+23св3252100 0.1 10151021
17:00+25юз124868 0.3 10141165
20:00+20в2574100 1.7 1013109
17 мая, пн
пн1723:00+16юв31091100 7.9 1013266
02:00+15ююв4109433 1.4 1013278
05:00+15ююз389632 1.4 1011199
08:00+20з4116464 0.0 1011526
11:00+26з5104182 0.0 10111778
14:00+27з61333100 0.0 10103031
17:00+26зюз7134019 0.1 10082319
20:00+19юз226292 0.2 101049
18 мая, вт
вт1823:00+18з396899 0.5 1010273
02:00+15з388294 0.0 1010185
05:00+14з278935 0.5 1010228
08:00+17ссз578069 0.1 1011759
11:00+12с5990100 1.8 1014750
14:00+11с5884100 0.4 1017918
17:00+11ссв5882100 0.4 1020863
20:00+10ссв487881 0.0 1022968
19 мая, ср
ср1923:00+8ссз23863 0.1 102452
02:00+7сз22890 0.0 102423
05:00+6ссз248699 0.0 1025106
08:00+11ссв355293 0.0 1027649
11:00+14ссв343643 0.0 10271270
14:00+16с343343 0.0 10261565
17:00+17ссв23345 0.0 10251599
20:00+14в224831 0.0 102425
20 мая, чт
чт2023:00+10ю246199 0.0 102573
02:00+9ююз396829 0.0 1024186
05:00+9ююз3107025 0.0 1022220
08:00+16зюз511488 0.0 1021495
11:00+22з58365 0.0 10191238
14:00+26з68275 0.0 10171807
17:00+27зсз57275 0.0 10161954
20:00+22зюз36460 0.0 1016122